Weather History for Billings, MT

Change the Weather History Date:

Monday, October 10, 2011

  Actual Average Record
Temperature  
Mean Temperature 54 °F 50 °F  
Max Temperature 65 °F 62 °F 85 °F (1953)
Min Temperature 42 °F 39 °F 16 °F (2009)
Degree Days  
Heating Degree Days 11 15  
Month to date heating degree days 69 132  
Since 1 July heating degree days 157 361  
Cooling Degree Days 0 0  
Month to date cooling degree days 22 0  
Year to date cooling degree days 734 633  
Growing Degree Days 3 (Base 50)    
Moisture  
Dew Point 34 °F    
Average Humidity 53    
Maximum Humidity 76    
Minimum Humidity 30    
Precipitation  
Precipitation 0.00 in 0.04 in 0.71 in (2003)
Month to date precipitation 1.19 0.45  
Year to date precipitation 18.40 11.80  
Snow  
Snow 0.00 in 0.10 in 3.10 in (2008)
Month to date snowfall 0.0 1.1  
Since 1 July snowfall T 2.2  
Since 1 September snowfall 0.0 2.2  
Snow Depth 0.00 in    
Sea Level Pressure  
Sea Level Pressure 29.77 in    
Wind  
Wind Speed 12 mph (WSW)    
Max Wind Speed 18 mph    
Max Gust Speed 23 mph    
Visibility 10 miles    
Events      
T = Trace of Precipitation, MM = Missing Value Source: NWS Daily Summary

Daily Weather History Graph

Daily Weather History Graph

Search for Another Location

Airport:

Trip Planner

Search our weather history database for the weather conditions in past years. The results will help you decide how hot, cold, wet, or windy it might be!

Date:

Astronomy

Oct. 10, 2011 Rise Set
Actual Time 7:23 AM MDT 6:37 PM MDT
Civil Twilight 6:54 AM MDT 7:07 PM MDT
Nautical Twilight 6:19 AM MDT 7:41 PM MDT
Astronomical Twilight 5:44 AM MDT 8:16 PM MDT
Moon 5:42 PM MDT (10/10) 6:07 AM MDT (10/10)
Length of Visible Light 12h 13m
Length of Day
11h 13m
Waxing Gibbous, 98% of the Moon is Illuminated
Oct 10
Waxing Gibbous
Oct 11
Full
Oct 19
Last Quarter
Oct 26
New
Nov 2
First Quarter

Hourly Weather History & Observations

Time (MDT) Temp. Windchill Dew Point Humidity Pressure Visibility Wind Dir Wind Speed Gust Speed Precip Events Conditions
12:53 AM 46.9 °F - 36.0 °F 66% 29.87 in 10.0 mi SW 11.5 mph - N/A   Clear
1:53 AM 46.0 °F 39.9 °F 36.0 °F 68% 29.86 in 10.0 mi WSW 13.8 mph - N/A   Clear
2:53 AM 44.1 °F 37.7 °F 36.0 °F 73% 29.86 in 10.0 mi SW 12.7 mph - N/A   Clear
3:53 AM 44.1 °F 37.4 °F 35.1 °F 71% 29.84 in 10.0 mi WSW 13.8 mph - N/A   Clear
4:53 AM 42.1 °F 34.2 °F 35.1 °F 76% 29.83 in 10.0 mi WSW 16.1 mph - N/A   Clear
5:53 AM 43.0 °F 36.4 °F 34.0 °F 71% 29.83 in 10.0 mi WSW 12.7 mph - N/A   Partly Cloudy
6:53 AM 42.8 °F 35.8 °F 33.8 °F 70% 29.84 in 10.0 mi SW 13.8 mph - N/A   Partly Cloudy
7:53 AM 43.0 °F 36.4 °F 34.0 °F 71% 29.84 in 10.0 mi SW 12.7 mph - N/A   Scattered Clouds
8:53 AM 43.0 °F 36.8 °F 35.1 °F 74% 29.85 in 10.0 mi SW 11.5 mph - N/A   Partly Cloudy
9:53 AM 46.9 °F - 36.0 °F 66% 29.83 in 10.0 mi WSW 10.4 mph - N/A   Scattered Clouds
10:53 AM 53.6 °F - 35.6 °F 51% 29.82 in 10.0 mi SW 13.8 mph - N/A   Partly Cloudy
11:53 AM 55.9 °F - 37.0 °F 49% 29.79 in 10.0 mi WSW 13.8 mph - N/A   Partly Cloudy
12:53 PM 61.0 °F - 33.1 °F 35% 29.76 in 10.0 mi WSW 17.3 mph - N/A   Partly Cloudy
1:53 PM 63.0 °F - 34.0 °F 34% 29.73 in 10.0 mi WSW 13.8 mph - N/A   Partly Cloudy
2:53 PM 64.0 °F - 32.0 °F 30% 29.71 in 10.0 mi WSW 12.7 mph 18.4 mph N/A   Partly Cloudy
3:53 PM 63.0 °F - 33.1 °F 33% 29.70 in 10.0 mi SW 10.4 mph - N/A   Scattered Clouds
4:53 PM 64.0 °F - 32.0 °F 30% 29.69 in 10.0 mi SW 9.2 mph - N/A   Scattered Clouds
5:53 PM 63.0 °F - 30.0 °F 29% 29.68 in 10.0 mi SW 10.4 mph - N/A   Scattered Clouds
6:53 PM 59.0 °F - 32.0 °F 36% 29.69 in 10.0 mi WSW 6.9 mph - N/A   Scattered Clouds
7:53 PM 55.9 °F - 34.0 °F 44% 29.71 in 10.0 mi WSW 9.2 mph - N/A   Partly Cloudy
8:53 PM 55.9 °F - 34.0 °F 44% 29.70 in 10.0 mi WSW 9.2 mph - N/A   Scattered Clouds
9:53 PM 55.9 °F - 33.1 °F 42% 29.68 in 10.0 mi WSW 13.8 mph - N/A   Partly Cloudy
10:53 PM 55.0 °F - 33.1 °F 43% 29.67 in 10.0 mi WSW 11.5 mph - N/A   Partly Cloudy
11:53 PM 55.9 °F - 34.0 °F 44% 29.64 in 10.0 mi WSW 12.7 mph - N/A   Mostly Cloudy